Date String (YYYY-MM-DD hh:mm:ss) UTC,Instrument flags,Ambient pressure (hPa),Sample flow (lpm),Bypass flow (lpm),Sample temperature (°C),Ambient temperature (°C),ASC tube jacket temperature (°C),LED temperature (°C),Box temperature (°C),Sample RH (%),Span deviation,Mass concentration (μg/m³),Mass concentration (μg/m³),Mass concentration (μg/m³)
DateTimeUTC,F1_M11,P_M11,Q1_M11,Q2_M11,T1_M11,T2_M11,T3_M11,T4_M11,T5_M11,U1_M11,ZSPAN_M11,X0_M11,X2_M11,X1_M11
2023-01-09 16:00:00,,0824.8,5.00,0.00,22.1,21.2,00.0,30.9,23.9,11.1,0000.0,0003.01,0000.97,0000.68
2023-01-09 16:01:00,,0824.8,5.00,0.00,22.2,21.2,00.0,30.9,24.0,11.0,0000.0,0001.97,0000.96,0000.69
2023-01-09 16:02:00,,0824.9,4.99,0.00,22.2,21.3,00.0,30.9,24.0,11.1,0000.0,0001.78,0000.93,0000.69
2023-01-09 16:03:00,,0824.9,5.01,0.00,22.2,21.3,00.0,31.0,24.0,10.9,0000.0,0001.79,0000.94,0000.69
2023-01-09 16:04:00,,0824.9,5.01,0.00,22.3,21.3,00.0,31.0,24.0,10.9,0000.0,0001.87,0000.97,0000.69
2023-01-09 16:05:00,,0824.8,4.99,0.00,22.3,21.4,00.0,31.0,24.1,11.0,0000.0,0001.90,0000.97,0000.68
2023-01-09 16:06:00,,0824.8,5.00,0.00,22.3,21.4,00.0,31.0,24.1,11.0,0000.0,0001.84,0000.94,0000.67
2023-01-09 16:07:00,,0824.9,5.01,0.00,22.4,21.4,00.0,31.0,24.1,11.1,0000.0,0001.80,0000.92,0000.66
2023-01-09 16:08:00,,0824.8,4.99,0.00,22.4,21.5,00.0,31.1,24.2,11.0,0000.0,0001.73,0000.89,0000.65
2023-01-09 16:09:00,,0824.7,4.99,0.00,22.4,21.5,00.0,31.1,24.2,11.0,0000.0,0001.74,0000.89,0000.64
2023-01-09 16:10:00,,0824.7,5.01,0.00,22.5,21.5,00.0,31.1,24.2,11.0,0000.0,0001.62,0000.85,0000.63
2023-01-09 16:11:00,,0824.7,5.00,0.00,22.5,21.6,00.0,31.1,24.3,10.8,0000.0,0001.43,0000.82,0000.64
2023-01-09 16:12:00,,0824.8,4.99,0.00,22.5,21.6,00.0,31.2,24.3,10.9,0000.0,0001.50,0000.81,0000.64
2023-01-09 16:13:00,,0824.8,5.00,0.00,22.6,21.6,00.0,31.2,24.3,11.6,0000.0,0001.66,0000.82,0000.64
2023-01-09 16:14:00,,0824.8,4.99,0.00,22.6,21.6,00.0,31.2,24.4,11.6,0000.0,0001.71,0000.85,0000.64
2023-01-09 16:15:00,,0824.8,4.99,0.00,22.6,21.6,00.0,31.2,24.4,11.8,0000.0,0001.75,0000.87,0000.64
2023-01-09 16:16:00,,0824.8,4.99,0.00,22.6,21.7,00.0,31.3,24.4,11.4,0000.0,0002.79,0000.88,0000.64
2023-01-09 16:17:00,,0824.8,5.00,0.00,22.6,21.7,00.0,31.3,24.5,11.2,0000.0,0002.84,0000.91,0000.66
2023-01-09 16:18:00,,0824.8,5.01,0.00,22.7,21.7,00.0,31.3,24.5,11.3,0000.0,0002.83,0000.93,0000.66
2023-01-09 16:19:00,,0824.8,4.99,0.00,22.7,21.7,00.0,31.3,24.5,11.3,0000.0,0002.78,0000.92,0000.67
2023-01-09 16:20:00,,0824.9,4.99,0.00,22.7,21.7,00.0,31.3,24.5,11.4,0000.0,0002.82,0000.93,0000.69
2023-01-09 16:21:00,,0824.9,4.98,0.00,22.7,21.7,00.0,31.4,24.5,11.4,0000.0,0002.92,0000.95,0000.69
2023-01-09 16:22:00,,0824.8,5.00,0.00,22.8,21.8,00.0,31.4,24.6,11.2,0000.0,0003.10,0000.99,0000.71
2023-01-09 16:23:00,,0824.8,5.00,0.00,22.8,21.8,00.0,31.4,24.6,11.1,0000.0,0003.15,0001.04,0000.72
2023-01-09 16:24:00,,0824.7,5.01,0.00,22.8,21.8,00.0,31.4,24.6,11.0,0000.0,0003.05,0001.04,0000.74
2023-01-09 16:25:00,,0824.7,4.99,0.00,22.8,21.8,00.0,31.5,24.6,11.2,0000.0,0003.00,0001.11,0000.76
2023-01-09 16:26:00,,0824.7,5.00,0.00,22.8,21.9,00.0,31.5,24.7,11.2,0000.0,0003.16,0001.16,0000.79
2023-01-09 16:27:00,,0824.7,5.00,0.00,22.9,21.9,00.0,31.5,24.7,10.8,0000.0,0003.14,0001.17,0000.81
2023-01-09 16:28:00,,0824.6,4.99,0.00,22.9,21.9,00.0,31.5,24.8,10.6,0000.0,0002.22,0001.14,0000.82
2023-01-09 16:29:00,,0824.6,5.01,0.00,22.9,21.9,00.0,31.6,24.8,10.5,0000.0,0002.10,0001.15,0000.82
2023-01-09 16:30:00,,0824.6,5.01,0.00,22.9,21.8,00.0,31.6,24.8,10.4,0000.0,0002.09,0001.15,0000.83
2023-01-09 16:31:00,,0824.6,5.00,0.00,22.9,21.8,00.0,31.6,24.8,10.6,0000.0,0002.18,0001.17,0000.84
2023-01-09 16:32:00,,0824.6,5.00,0.00,22.9,21.8,00.0,31.6,24.8,10.6,0000.0,0002.20,0001.16,0000.82
2023-01-09 16:33:00,,0824.6,5.02,0.00,22.9,21.9,00.0,31.6,24.7,10.6,0000.0,0001.99,0001.13,0000.81
2023-01-09 16:34:00,,0824.7,5.00,0.00,22.9,21.9,00.0,31.6,24.8,10.6,0000.0,0002.02,0001.13,0000.80
2023-01-09 16:35:00,,0824.7,4.99,0.00,22.9,21.9,00.0,31.6,24.8,10.6,0000.0,0001.98,0001.10,0000.78
2023-01-09 16:36:00,,0824.9,4.99,0.00,22.9,21.9,00.0,31.7,24.8,10.8,0000.0,0002.05,0001.03,0000.75
2023-01-09 16:37:00,,0824.6,4.99,0.00,22.9,21.9,00.0,31.7,24.7,10.7,0000.0,0002.93,0000.95,0000.72
2023-01-09 16:38:00,,0824.6,5.00,0.00,22.9,21.9,00.0,31.7,24.8,10.9,0000.0,0003.17,0000.92,0000.70
2023-01-09 16:39:00,,0824.7,5.01,0.00,22.9,21.8,00.0,31.7,24.8,10.9,0000.0,0003.23,0000.92,0000.69
2023-01-09 16:40:00,,0824.7,5.00,0.00,22.9,21.7,00.0,31.7,24.7,11.1,0000.0,0003.27,0000.93,0000.68
2023-01-09 16:41:00,,0824.4,5.01,0.00,22.9,21.7,00.0,31.7,24.7,11.1,0000.0,0003.26,0000.93,0000.68
2023-01-09 16:42:00,,0824.6,5.00,0.00,22.9,21.7,00.0,31.7,24.7,11.1,0000.0,0003.23,0000.91,0000.67
2023-01-09 16:43:00,,0824.6,4.98,0.00,22.9,21.8,00.0,31.7,24.7,11.1,0000.0,0003.12,0000.90,0000.66
2023-01-09 16:44:00,,0824.5,4.99,0.00,22.9,21.8,00.0,31.7,24.7,10.8,0000.0,0003.08,0000.89,0000.66
2023-01-09 16:45:00,,0824.4,5.01,0.00,22.9,21.9,00.0,31.7,24.7,10.8,0000.0,0004.18,0000.86,0000.65
2023-01-09 16:46:00,,0824.3,5.00,0.00,23.0,21.9,00.0,31.7,24.8,10.6,0000.0,0004.64,0000.92,0000.66
2023-01-09 16:47:00,,0824.4,5.00,0.00,23.0,21.9,00.0,31.7,24.9,10.6,0000.0,0005.02,0000.94,0000.67
2023-01-09 16:48:00,,0824.5,5.00,0.00,23.0,21.9,00.0,31.7,24.8,11.0,0000.0,0004.11,0000.97,0000.68
2023-01-09 16:49:00,,0824.5,4.99,0.00,23.0,21.9,00.0,31.8,24.8,11.1,0000.0,0003.51,0000.96,0000.68
2023-01-09 16:50:00,,0824.4,5.01,0.00,23.0,21.9,00.0,31.8,24.8,11.5,0000.0,0003.72,0000.94,0000.68
2023-01-09 16:51:00,,0824.2,5.00,0.00,23.0,21.9,00.0,31.8,24.9,11.1,0000.0,0004.04,0000.93,0000.69
2023-01-09 16:52:00,,0824.3,5.00,0.00,23.0,21.9,00.0,31.8,24.9,10.5,0000.0,0005.41,0000.93,0000.69
2023-01-09 16:53:00,,0824.2,5.00,0.00,23.1,22.0,00.0,31.8,24.9,10.5,0000.0,0005.42,0000.92,0000.69
2023-01-09 16:54:00,,0824.2,4.99,0.00,23.1,22.0,00.0,31.8,24.9,10.6,0000.0,0005.41,0000.91,0000.68
2023-01-09 16:55:00,,0824.2,4.99,0.00,23.1,22.0,00.0,31.8,24.9,10.7,0000.0,0005.46,0000.93,0000.69
2023-01-09 16:56:00,,0824.2,5.00,0.00,23.1,21.9,00.0,31.8,24.9,11.0,0000.0,0004.51,0000.95,0000.70
2023-01-09 16:57:00,,0824.2,4.99,0.00,23.1,21.9,00.0,31.8,24.9,10.5,0000.0,0004.02,0000.89,0000.69
2023-01-09 16:58:00,,0824.1,5.00,0.00,23.1,21.9,00.0,31.8,24.9,10.3,0000.0,0004.63,0000.87,0000.68
2023-01-09 16:59:00,,0824.1,5.01,0.00,23.1,21.9,00.0,31.8,24.9,10.3,0000.0,0004.48,0000.85,0000.68
